Regional Weather Roundup
Issued by NWS

Home | Current Version | Previous Version | Graphics & Text | Print | Product List | Glossary On
Versions: 1 2 3 4 5 6 7 8 9 10 11 12 13 14 15 16 17 18 19 20 21 22 23 24 25 26 27 28 29 30 31 32 33 34 35 36 37 38 39 40 41 42 43 44 45 46 47 48 49 50
991
ASUS43 KDMX 231406
RWRIA

WEATHER ROUNDUP FOR IOWA
NATIONAL WEATHER SERVICE DES MOINES IA
900 AM CDT MON APR 23 2018

NOTE: "FAIR" INDICATES FEW OR NO CLOUDS BELOW 12,000 FEET WITH NO
SIGNIFICANT WEATHER AND/OR OBSTRUCTIONS TO VISIBILITY.

* - THESE STATIONS ARE NOT NWS STATIONS...THUS NOT UNDER NWS
QUALITY CONTROL.  THEY ALSO DO NOT REPORT WEATHER SUCH
AS PRECIPITATION OR FOG.

IAZ001>003-012>014-020>022-031>034-043>046-231500-
   NORTHWEST IOWA

CITY           SKY/WX    TMP DP  RH WIND       PRES   REMARKS
CARROLL *      MOSUNNY   52  36  54 E8        30.22S
CHEROKEE *     SUNNY     47  43  85 CALM      30.23S
DENISON *      SUNNY     50  36  57 NE6       30.23S
LE MARS *      SUNNY     46  41  81 CALM      30.23S
ORANGE CITY *  SUNNY     52  43  71 E6        30.23S
SHELDON *      SUNNY     50  41  71 SE9       30.21S
SIOUX CITY     SUNNY     49  38  65 SE3       30.23R
SPENCER        SUNNY     50  37  61 SE6       30.24S
STORM LAKE *   SUNNY     50  37  62 E8        30.23S
$$

IAZ055>058-069>071-079>083-090>094-231500-
   SOUTHWEST IOWA

CITY           SKY/WX    TMP DP  RH WIND       PRES   REMARKS
ATLANTIC *     SUNNY     50  36  57 NE10      30.21S
AUDUBON *      SUNNY     52  34  50 E10       30.22S
CLARINDA *     PTSUNNY   54  34  47 NE8       30.20S
COUNCIL BLFS * SUNNY     54  34  47 E9        30.20S
CRESTON *      SUNNY     50  32  50 NE10      30.20R
HARLAN  *      SUNNY     52  36  54 E8        30.24S
LAMONI         PTSUNNY   55  32  41 NE14      30.17R
RED OAK *      SUNNY     52  34  50 MISG      30.20S
SHENANDOAH *   SUNNY     54  34  47 NE7       30.19S
$$

IAZ047>049-059>061-072>074-084-231500-
   CENTRAL IOWA

CITY           SKY/WX    TMP DP  RH WIND       PRES   REMARKS
AMES           SUNNY     51  33  50 E5        30.22F
ANKENY *       CLOUDY    50  32  50 NE6       30.23S
BOONE *        MOSUNNY   50  34  53 E8        30.21F
CHARITON *     MOSUNNY   52  32  46 NE10      30.18S
DES MOINES     CLOUDY    53  31  42 NE7       30.21S
GRINNELL*      CLOUDY    52  30  43 NE9       30.22S
KNOXVILLE *    CLOUDY    52  28  40 NE9       30.18F
MARSHALLTOWN   CLOUDY    50  35  56 E8        30.22S
NEWTON *       CLOUDY    52  30  43 NE9       30.21S
PELLA *        CLOUDY    54  29  37 NE3       30.21S
PERRY *        FAIR      49  31  49 E6        30.22S
$$

IAZ004>006-015-016-023>025-035-036-231500-
   NORTH CENTRAL IOWA

CITY           SKY/WX    TMP DP  RH WIND       PRES   REMARKS
ALGONA *       MOSUNNY   50  37  62 E6        30.24S
CLARION *      SUNNY     52  34  50 E9        30.24S
ESTHERVILLE    SUNNY     41  37  86 CALM      30.24S
FORT DODGE *   SUNNY     51  39  63 E8        30.24S
MASON CITY     SUNNY     47  36  65 E3        30.26S
FOREST CITY *  FAIR      50  34  53 SE7       30.24F
WEBSTER CITY * SUNNY     52  32  46 E10       30.21F
IOWA FALLS *   FAIR      51  33  49 E6        30.24S
$$

IAZ007>011-017>019-026>030-037>042-050>054-066-231500-
   NORTHEAST IOWA

CITY           SKY/WX    TMP DP  RH WIND       PRES   REMARKS
CEDAR RAPIDS   FAIR      55  28  35 NE9       30.20F
CHARLES CITY * CLOUDY    46  34  61 NE6       30.25F
CLINTON *      FAIR      52  28  39 NE12      30.21F
DECORAH *      FAIR      46  32  57 CALM      30.25S
DUBUQUE        FAIR      50  28  42 NE9       30.23F
MONTICELLO *   FAIR      54  28  37 NE8       30.22F
OELWEIN *      FAIR      52  30  43 E8        30.24F
WATERLOO       FAIR      51  32  48 E8        30.24S
$$

IAZ064-065-067-068-078-231500-
   EAST CENTRAL IOWA

CITY           SKY/WX    TMP DP  RH WIND       PRES   REMARKS
DAVENPORT      FAIR      50  28  42 NE13      30.22S
IOWA CITY      FAIR      55  26  32 NE12      30.21F
MT. PLEASANT * CLOUDY    52  28  40 NE13      30.16F
MUSCATINE *    FAIR      54  28  37 NE12      30.19F
QUAD CITIES    FAIR      53  26  35 E12       30.18F
$$

IAZ062-063-075>077-085>089-095>099-231500-
   SOUTHEAST IOWA

CITY           SKY/WX    TMP DP  RH WIND       PRES   REMARKS
BURLINGTON     CLOUDY    51  29  42 NE15      30.14F
FAIRFIELD *    PTSUNNY   52  28  40 NE14      30.17F
FORT MADISON * MOSUNNY   52  30  43 N9        30.15S
KEOKUK *       MOSUNNY   52  32  46 N9        30.13S
OSKALOOSA *    FAIR      52  29  40 NE10      30.19S
CENTERVILLE *    N/A     52  30  43 N6        30.18R
OTTUMWA        CLOUDY    52  30  43 NE10      30.17F
WASHINGTON *   CLOUDY    54  28  37 NE15      30.19F
$$

ABBREVIATIONS USED IN REMARKS
   TC - TEMPERATURES IN CELSIUS
  WCI - WIND CHILL INDEX
   HX - HEAT INDEX
  VSB - VISIBILITY
$$





USA.gov is the U.S. government's official web portal to all federal, state and local government web resources and services.